"2009-05-24 00:00:00",913273,3.905,52.31,3.8,0.337,14.77,105.8001,14.12,15.16,71.95,0,110.5,13.31,14.92,14.3
"2009-05-24 00:00:30",913274,4.735,55.15,1.961,0.479,14.57,105.7997,14.12,15.17,72.3,0,110.5,13.31,14.92,17.2
"2009-05-24 00:01:00",913275,6.916,57.03,8.17,1.333,16.74,105.7956,14.11,15.22,72.57,0,110.5,13.27,14.91,19.0
"2009-05-24 00:01:30",913276,7.935,58.32,7.578,1.396,17.31,105.7904,14.1,15.37,72.88,0,110.5,13.28,14.90,20.3
"2009-05-24 00:02:00",913277,6.485,53.2,6.711,1.38,16.53,105.7864,14.09,15.4,72.97,0,110.5,13.28,14.89,15.2
"2009-05-24 00:02:30",913278,5.068,48.81,4.07,0.617,13.92,105.7897,14.09,15.18,72.8,0,110.5,13.28,14.90,10.8
"2009-05-24 00:03:00",913279,5.001,56.47,3.198,0.34,13.63,105.7924,14.1,15.15,72.98,0,110.5,13.32,14.90,18.5
"2009-05-24 00:03:30",913280,5.048,58.5,2.793,0.179,13.76,105.7921,14.1,15.16,73.04,0,110.5,13.32,14.90,20.5
"2009-05-24 00:04:00",913281,6.137,62.04,7.061,1.387,16.13,105.7966,14.11,15.33,73.06,0,110.5,13.28,14.91,24.0
"2009-05-24 00:04:30",913282,5.446,58.2,5.649,0.945,14.39,105.7966,14.11,15.14,72.89,0,110.5,13.28,14.91,20.2
"2009-05-24 00:05:00",913283,4.997,55.09,3.922,0.307,13.96,105.8004,14.12,15.13,73.13,0,110.5,13.32,14.92,17.1
"2009-05-24 00:05:30",913284,4.282,53.02,3.496,0.228,13.93,105.8028,14.13,15.12,73.34,0,110.5,13.32,14.93,15.0
"2009-05-24 00:06:00",913285,5.332,49.64,1.597,0.255,14.15,105.8009,14.12,15.12,73.4,0,110.5,13.32,14.92,11.6
"2009-05-24 00:06:30",913286,4.863,50.63,2.036,0.22,14.39,105.8014,14.12,15.12,73.41,0,110.5,13.32,14.93,12.6
"2009-05-24 00:07:00",913287,5.951,46.67,5.452,0.891,15.3,105.8053,14.13,15.25,73.6,0,110.5,13.28,14.94,8.7
"2009-05-24 00:07:30",913288,6.096,61.23,5.293,1.515,16.16,105.8047,14.13,15.12,73.56,0,110.5,13.28,14.93,23.2
"2009-05-24 00:08:00",913289,4.987,55.34,3.641,0.328,14.56,105.8048,14.13,15.11,73.81,0,110.5,13.32,14.93,17.3
"2009-05-24 00:08:30",913290,5.037,51.39,5.175,0.352,14.42,105.8054,14.13,15.12,73.74,0,110.5,13.32,14.94,13.4
"2009-05-24 00:09:00",913291,4.81,44.15,2.171,0.278,14.46,105.8054,14.13,15.1,73.47,0,110.5,13.32,14.94,6.2
"2009-05-24 00:09:30",913292,6.387,52.55,7.524,1.471,17.09,105.802,14.13,15.29,73.7,0,110.5,13.28,14.93,14.5
"2009-05-24 00:10:00",913293,4.99,48.57,6.039,1.13,15.8,105.8023,14.13,15.33,73.73,0,110.5,13.28,14.93,10.6
"2009-05-24 00:10:30",913294,5.609,48.31,6.904,1.361,15.82,105.7964,14.11,15.15,73.51,0,110.5,13.28,14.91,10.3
"2009-05-24 00:11:00",913295,4.542,52.15,4.975,0.316,13.8,105.7888,14.09,15.11,73.46,0,110.5,13.32,14.89,14.2
"2009-05-24 00:11:30",913296,5.335,54.37,4.412,0.235,13.67,105.7826,14.08,15.09,73.48,0,110.5,13.32,14.88,16.4
"2009-05-24 00:12:00",913297,5.203,43.56,5.219,0.512,13.95,105.7809,14.07,15.09,73.66,0,110.5,13.32,14.87,5.6
"2009-05-24 00:12:30",913298,6.268,55.33,6.364,0.974,15.52,105.7809,14.07,15.27,73.94,0,110.5,13.28,14.87,17.3
"2009-05-24 00:13:00",913299,6.742,63.59,7.461,1.42,16.64,105.7809,14.07,15.2,73.44,0,110.5,13.28,14.87,25.6
"2009-05-24 00:13:30",913300,5.935,63.25,7.217,1,15.49,105.7809,14.07,15.21,73.2,0,110.5,13.28,14.87,25.2
"2009-05-24 00:14:00",913301,6.304,62.72,5.384,0.985,14.57,105.7809,14.07,15.08,73.13,0,110.5,13.28,14.87,24.7
"2009-05-24 00:14:30",913302,5.179,52.47,2.606,0.282,13.89,105.7809,14.07,15.17,73.08,0,110.5,13.31,14.87,14.5
"2009-05-24 00:15:00",913303,7.238,60.87,8.74,1.371,17.12,105.779,14.07,15.22,73.07,0,110.5,13.27,14.87,22.9
"2009-05-24 00:15:30",913304,6.731,59.79,6.635,1.348,17.62,105.7612,14.02,15.34,73.19,0,110.5,13.27,14.82,21.8
"2009-05-24 00:16:00",913305,6.367,62.02,5.813,1.074,14.8,105.7477,13.99,15.06,72.99,0,110.5,13.27,14.79,24.0
"2009-05-24 00:16:30",913306,5.423,55.77,2.652,0.163,13.32,105.7471,13.99,15.03,72.95,0,110.5,13.31,14.79,17.8
"2009-05-24 00:17:00",913307,5.586,59.2,1.552,0.124,13.45,105.7471,13.99,15.03,73.06,0,110.5,13.31,14.79,21.2
"2009-05-24 00:17:30",913308,5.817,61.12,1.724,0.152,13.79,105.735,13.95,15.01,73.1,0,110.5,13.31,14.75,23.1
"2009-05-24 00:18:00",913309,5.796,58.78,1.209,0.101,14.13,105.7144,13.9,15,73.14,0,110.5,13.32,14.70,20.8
"2009-05-24 00:18:30",913310,6.225,62.44,5.443,1.117,16.01,105.7133,13.9,15.21,73.42,0,110.5,13.28,14.70,24.4
"2009-05-24 00:19:00",913311,7.179,69.17,8.16,1.278,17.76,105.7122,13.9,15.18,73.45,0,110.5,13.28,14.70,31.2
"2009-05-24 00:19:30",913312,5.641,64.48,6.663,1.102,15.67,105.702,13.87,15.07,73.47,0,110.5,13.29,14.67,26.5
"2009-05-24 00:20:00",913313,5.52,57.56,5.247,0.764,14.46,105.6818,13.82,15.07,73.43,0,110.5,13.29,14.62,19.6
"2009-05-24 00:20:30",913314,6.587,61.08,7.499,1.446,15.46,105.6795,13.81,14.97,73.47,0,110.5,13.28,14.61,23.1
"2009-05-24 00:21:00",913315,7.246,65.66,7.162,1.219,17.19,105.6795,13.81,15.09,73.98,0,110.5,13.29,14.61,27.7
"2009-05-24 00:21:30",913316,5.749,55.11,1.967,0.118,13.61,105.6728,13.79,14.97,73.71,0,110.5,13.32,14.60,17.1
"2009-05-24 00:22:00",913317,5.566,59.26,3.782,0.289,13.49,105.6556,13.75,14.87,73.5,0,110.5,13.32,14.55,21.3
"2009-05-24 00:22:30",913318,5.211,65.61,1.611,0.124,13.75,105.648,13.73,14.86,73.57,0,110.5,13.32,14.53,27.6
"2009-05-24 00:23:00",913319,6.889,70.06,7.227,1.315,17.22,105.649,13.73,15.08,73.9,0,110.5,13.29,14.53,32.1
"2009-05-24 00:23:30",913320,6.816,76.79,7.667,1.284,17.68,105.6492,13.73,15.12,73.98,0,110.5,13.29,14.53,38.8
"2009-05-24 00:24:00",913321,6.35,67.29,10.57,1.386,16.7,105.6425,13.72,14.96,74.01,0,110.4,13.29,14.52,29.3
"2009-05-24 00:24:30",913322,6.616,69.43,7.635,1.312,17.09,105.6352,13.7,15.08,74.27,0,110.4,13.29,14.50,31.4
"2009-05-24 00:25:00",913323,6.654,68.82,8.35,1.276,16.18,105.636,13.7,14.92,74.23,0,110.4,13.29,14.50,30.8
"2009-05-24 00:25:30",913324,5.127,52.48,4.282,0.181,-24.12,105.6358,13.7,14.89,74.32,0,110.4,13.33,14.50,14.5
"2009-05-24 00:26:00",913325,5.036,49.76,0.028,0,-58.11,105.6271,13.68,14.76,74.45,0,110.4,13.33,14.48,11.8
"2009-05-24 00:26:30",913326,5.521,53.9,6.003,0.958,-31.31,105.6236,13.67,14.74,74.42,0,110.4,13.29,14.47,15.9
"2009-05-24 00:27:00",913327,6.758,63.81,6.223,1.337,20.4,105.6045,13.62,14.9,74.58,0,110.4,13.29,14.42,25.8
"2009-05-24 00:27:30",913328,7.981,67.52,5.422,0.99,22.92,105.5957,13.6,15.03,74.86,0,110.4,13.29,14.40,29.5
"2009-05-24 00:28:00",913329,8.54,70.57,4.396,0.74,13.71,105.5808,13.56,15,75.25,0,110.4,13.29,14.36,32.6
"2009-05-24 00:28:30",913330,8.58,71.67,5.241,0.61,-8.42,105.5639,13.52,14.91,75.62,0,110.4,13.29,14.32,33.7
"2009-05-24 00:29:00",913331,7.167,72.64,6.315,1.308,0.411,105.5498,13.48,14.89,76.03,0,110.4,13.29,14.28,34.6
"2009-05-24 00:29:30",913332,6.804,68.15,7.737,1.251,13.15,105.5301,13.43,14.64,76,0,110.4,13.29,14.23,30.2
"2009-05-24 00:30:00",913333,8.38,66.9,6.519,1.475,11.86,105.518,13.4,14.64,76.19,0,110.4,13.28,14.20,28.9
"2009-05-24 00:30:30",913334,9.68,73.7,5.712,0.803,19.2,105.5016,13.36,14.86,76.88,0,110.4,13.28,14.16,35.7
"2009-05-24 00:31:00",913335,9.01,87.4,5.813,1,20.19,105.4768,13.29,14.82,77.42,0,110.4,13.28,14.09,49.4
"2009-05-24 00:31:30",913336,9.07,94.5,4.638,0.958,20.16,105.4503,13.23,14.78,77.86,0,110.4,13.28,14.02,56.5
"2009-05-24 00:32:00",913337,9.42,92.5,3.508,0.922,19.53,105.4241,13.16,14.74,78.35,0,110.4,13.28,13.96,54.5
"2009-05-24 00:32:30",913338,10.1,88.8,3.742,0.815,20.49,105.3946,13.08,14.69,78.78,0,110.4,13.28,13.88,50.8
"2009-05-24 00:33:00",913339,9.5,87.2,3.304,0.879,18.82,105.3672,13.01,14.62,79.1,0,110.4,13.28,13.81,49.2
"2009-05-24 00:33:30",913340,9.26,83.2,3.142,0.956,19.27,105.3365,12.93,14.55,79.11,0,110.4,13.28,13.73,45.2
"2009-05-24 00:34:00",913341,9.01,84.7,2.209,0.826,19.02,105.3039,12.85,14.47,79.04,0,110.4,13.28,13.65,46.7
"2009-05-24 00:34:30",913342,9.08,83.2,4.264,0.726,8.33,105.2811,12.79,14.41,79.13,0,110.4,13.28,13.59,45.2
"2009-05-24 00:35:00",913343,9.43,85.8,5.015,0.977,10.33,105.2609,12.74,14.37,79.01,0,110.4,13.28,13.54,47.8
"2009-05-24 00:35:30",913344,8.98,87.5,4.455,0.955,1.028,105.2401,12.69,14.3,78.03,0,110.4,13.28,13.48,49.5
"2009-05-24 00:36:00",913345,9.37,87.5,3.741,0.658,23.73,105.218,12.63,14.21,77.6,0,110.3,13.29,13.43,49.5
"2009-05-24 00:36:30",913346,9.02,82.9,3.461,0.925,26.34,105.1992,12.58,14.17,77.58,0,110.4,13.29,13.38,44.9
"2009-05-24 00:37:00",913347,8.52,79.75,4.206,0.964,23.96,105.1839,12.54,14.11,78.69,0,110.4,13.29,13.34,41.8
"2009-05-24 00:37:30",913348,8.52,83.4,4.972,0.74,20.38,105.1731,12.52,14.06,79.5,0,110.3,13.29,13.31,45.4
"2009-05-24 00:38:00",913349,8.54,81.6,3.875,0.906,-37.34,105.1474,12.45,14.02,79.14,0,110.4,13.3,13.25,43.6
"2009-05-24 00:38:30",913350,9.01,87.9,3.565,0.95,-7.203,105.1274,12.4,13.96,78.3,0,110.3,13.3,13.19,49.9
"2009-05-24 00:39:00",913351,8.74,84.9,3.69,0.879,18.8,105.115,12.37,13.9,78.16,0,110.3,13.3,13.16,46.9
"2009-05-24 00:39:30",913352,9.3,82.5,3.096,0.932,11.26,105.1049,12.34,13.85,78.4,0,110.3,13.3,13.14,44.5
"2009-05-24 00:40:00",913353,9.91,81.3,3.754,0.822,5.253,105.0902,12.3,13.81,79.08,0,110.3,13.3,13.10,43.3
"2009-05-24 00:40:30",913354,9.53,87,3.482,0.872,1.905,105.0755,12.27,13.81,80,0,110.3,13.3,13.06,49.0
"2009-05-24 00:41:00",913355,9.48,91.4,3.34,0.907,-36.45,105.0758,12.27,13.76,81.1,0,110.3,13.3,13.06,53.4
"2009-05-24 00:41:30",913356,8.74,86.8,4.395,0.962,-6.159,105.0685,12.25,13.74,81.9,0,110.3,13.3,13.04,48.8
"2009-05-24 00:42:00",913357,8.52,87.6,5.894,0.795,-40.97,105.0567,12.22,13.71,82.4,0,110.3,13.3,13.01,49.6
"2009-05-24 00:42:30",913358,8.22,97,5.458,0.913,-0.433,105.0462,12.19,13.72,82.8,0,110.3,13.3,12.99,59.0
"2009-05-24 00:43:00",913359,8.51,106.2,3.659,0.807,16.27,105.0409,12.18,13.65,83.1,0,110.3,13.3,12.97,68.2
"2009-05-24 00:43:30",913360,8.37,105.2,2.901,0.912,-2.631,105.0352,12.16,13.65,83.5,0,110.3,13.3,12.96,67.2
"2009-05-24 00:44:00",913361,8.08,104,5.294,0.896,6.714,105.0155,12.11,13.62,83.8,0,110.3,13.3,12.91,66.0
"2009-05-24 00:44:30",913362,7.372,107.1,5.081,0.903,-5.023,105.0087,12.09,13.61,84,0,110.3,13.3,12.89,69.1
"2009-05-24 00:45:00",913363,7.132,107.4,6.571,0.917,17.89,105.0068,12.09,13.57,84.1,0,110.3,13.3,12.88,69.4
"2009-05-24 00:45:30",913364,5.083,94.1,7.158,1.226,17.98,104.9946,12.06,13.52,84.5,0,110.3,13.3,12.85,56.1
"2009-05-24 00:46:00",913365,4.219,115.6,47.7,0.841,-5.998,104.9755,12.01,13.5,84.4,0,110.2,13.3,12.80,77.6
"2009-05-24 00:46:30",913366,5.647,160.2,6.31,1.062,0.145,104.9747,12.01,13.47,84,0,110.3,13.3,12.80,122.2
"2009-05-24 00:47:00",913367,5.016,136.6,9.21,0.891,14.68,104.9602,11.97,13.4,83.2,0,110.3,13.3,12.76,98.6
"2009-05-24 00:47:30",913368,4.373,130.5,9.05,0.946,10.25,104.9474,11.94,13.39,82.5,0,110.3,13.29,12.73,92.5
"2009-05-24 00:48:00",913369,3.411,166,45.9,0.789,-2.834,104.9404,11.92,13.33,81.9,0,110.3,13.29,12.71,128.0
"2009-05-24 00:48:30",913370,4.124,146.9,20.39,0.966,0.679,104.9173,11.86,13.33,81.7,0,110.3,13.29,12.65,108.9
"2009-05-24 00:49:00",913371,4.178,142.4,6.464,1.071,-20.83,104.9213,11.87,13.28,81.5,0,110.3,13.29,12.66,104.4
"2009-05-24 00:49:30",913372,4.305,168.5,16.12,1.044,20.41,104.9142,11.85,13.21,79.4,0,110.3,13.3,12.65,130.5
"2009-05-24 00:50:00",913373,3.718,158.1,22.18,1.019,17.73,104.9001,11.82,13.19,78.42,0,110.3,13.29,12.61,120.1
"2009-05-24 00:50:30",913374,4.794,139.5,7.193,0.954,-36.06,104.9043,11.83,13.18,78.84,0,110.3,13.29,12.62,101.5
"2009-05-24 00:51:00",913375,5.058,139.5,5.588,0.95,12.45,104.9055,11.83,13.15,80.1,0,110.3,13.3,12.62,101.5
"2009-05-24 00:51:30",913376,5.307,135.2,5.239,0.803,16.49,104.899,11.81,13.16,81.2,0,110.3,13.3,12.61,97.2
"2009-05-24 00:52:00",913377,4.875,136.4,7.563,0.854,18.01,104.8909,11.79,13.14,82.1,0,110.3,13.3,12.59,98.4
"2009-05-24 00:52:30",913378,3.47,134.2,14.19,1.164,17.3,104.8728,11.75,13.1,82.7,0,110.3,13.3,12.54,96.2
"2009-05-24 00:53:00",913379,2.246,82.3,16.13,0.862,7.064,104.8722,11.75,12.82,83,0,110.3,13.31,12.54,44.3
"2009-05-24 00:53:30",913380,3.417,76.2,12.16,1.196,15.87,104.8731,11.75,12.89,83.4,0,110.3,13.31,12.54,38.2
"2009-05-24 00:54:00",913381,3.649,60,8.11,1.169,17.43,104.8689,11.74,13.06,84,0,110.3,13.31,12.53,22.0
"2009-05-24 00:54:30",913382,4.651,66.54,9.93,1.303,18.64,104.857,11.71,13.05,84.3,0,110.4,13.31,12.50,28.5
"2009-05-24 00:55:00",913383,6.26,64.32,6.676,0.898,19.12,104.8398,11.66,13.1,84.6,0,110.2,13.31,12.46,26.3
"2009-05-24 00:55:30",913384,5.175,54.03,6.706,0.823,19,104.8392,11.66,13.09,84.9,0,110.3,13.31,12.45,16.0
"2009-05-24 00:56:00",913385,5.505,51.81,7.431,0.897,18.96,104.8395,11.66,13.09,85.2,0,110.3,13.31,12.45,13.8
"2009-05-24 00:56:30",913386,5.805,44.13,7.761,1.198,17.34,104.839,11.66,12.92,85.4,0,110.2,13.31,12.45,6.1
"2009-05-24 00:57:00",913387,4.935,30.83,5.576,1.215,15.97,104.8308,11.64,12.86,85.6,0,110.2,13.31,12.43,352.8
"2009-05-24 00:57:30",913388,5.057,53.28,7.965,1.286,15.56,104.8156,11.6,12.84,85.9,0,110.2,13.31,12.39,15.3
"2009-05-24 00:58:00",913389,6.422,64.14,7.068,1.281,17.9,104.8057,11.58,12.89,86.1,0,110.2,13.31,12.37,26.1
"2009-05-24 00:58:30",913390,7.553,64.29,5.008,0.917,19.84,104.8054,11.57,13.01,86.3,0,110.2,13.32,12.37,26.3
"2009-05-24 00:59:00",913391,7.511,57.02,7.95,0.606,19.84,104.8054,11.57,12.97,86.4,0,110.2,13.32,12.37,19.0
"2009-05-24 00:59:30",913392,7.1,61.16,9.88,1.096,19.14,104.8054,11.57,12.99,86.6,0,110.2,13.32,12.37,23.2
"2009-05-24 01:00:00",913393,6.08,50.45,7.309,1.455,16.05,104.8054,11.57,12.69,86.2,0,110.2,13.32,12.37,12.5
"2009-05-24 01:00:30",913394,5.653,43.62,5.819,1.14,15.89,104.8054,11.57,12.77,86.4,0,110.2,13.32,12.37,5.6
"2009-05-24 01:01:00",913395,4.621,43.35,2.524,0.21,14.74,104.8051,11.57,12.62,86.4,0,110.2,13.35,12.37,5.3
"2009-05-24 01:01:30",913396,4.854,51.71,5.098,0.447,15.26,104.8015,11.56,12.62,86.4,0,110.2,13.36,12.36,13.7
"2009-05-24 01:02:00",913397,5.531,50.14,8.19,1.211,17.28,104.7975,11.55,12.74,86.6,0,110.2,13.33,12.35,12.1
"2009-05-24 01:02:30",913398,7.804,58.36,6.43,1.187,19.87,104.7936,11.54,12.92,86.9,0,110.2,13.32,12.34,20.4
"2009-05-24 01:03:00",913399,8.59,58.33,4.963,0.69,18,104.7888,11.53,12.93,87,0,110.2,13.32,12.32,20.3
"2009-05-24 01:03:30",913400,8.7,55.51,5.053,1.061,16.3,104.7917,11.54,12.82,87.1,0,110.2,13.32,12.33,17.5
"2009-05-24 01:04:00",913401,8.11,52.36,5.772,1.258,14.31,104.7965,11.55,12.74,87.1,0,110.2,13.31,12.34,14.4
"2009-05-24 01:04:30",913402,6.724,45.42,2.868,0.213,12.65,104.8014,11.56,12.59,87,0,110.2,13.35,12.36,7.4
"2009-05-24 01:05:00",913403,5.905,33.63,5.74,0.809,15.43,104.8132,11.59,12.6,87.1,0,110.2,13.35,12.39,355.6
"2009-05-24 01:05:30",913404,5.924,33.18,1.764,0.58,15.68,104.8149,11.6,12.69,87.4,0,110.2,13.35,12.39,355.2
"2009-05-24 01:06:00",913405,6.119,36.95,7.434,1.712,17.21,104.8176,11.61,12.67,87.4,0,110.2,13.32,12.40,359.0
"2009-05-24 01:06:30",913406,7.308,45.4,6.167,1.359,19.63,104.8202,11.61,12.9,87.8,0,110.2,13.32,12.40,7.4
"2009-05-24 01:07:00",913407,7.143,46.76,4.718,0.834,19.72,104.8231,11.62,12.92,87.9,0,110.2,13.32,12.41,8.8
"2009-05-24 01:07:30",913408,7.251,47.27,8.12,1.288,17.32,104.8294,11.64,12.86,87.9,0,110.2,13.33,12.43,9.3
"2009-05-24 01:08:00",913409,6.319,40.53,1.214,0.217,14.42,104.8305,11.64,12.63,87.8,0,110.2,13.36,12.43,2.5
"2009-05-24 01:08:30",913410,6.294,40.54,1.755,0.152,14.62,104.832,11.64,12.61,87.7,0,110.2,13.36,12.44,2.5
"2009-05-24 01:09:00",913411,6.272,42.96,2.197,0.372,10.59,104.832,11.64,12.61,87.6,0,110.2,13.33,12.44,5.0
"2009-05-24 01:09:30",913412,7.617,50.56,6.149,1.313,10.66,104.8344,11.65,12.77,87.7,0,110.2,13.33,12.44,12.6
"2009-05-24 01:10:00",913413,9.09,52.04,6.319,0.947,15.34,104.8376,11.66,12.87,87.8,0,110.2,13.33,12.45,14.0
"2009-05-24 01:10:30",913414,8.78,52.19,5.695,0.926,20.49,104.8394,11.66,12.93,87.9,0,110.2,13.33,12.45,14.2
"2009-05-24 01:11:00",913415,7.875,53.17,3.911,0.985,17.13,104.8409,11.67,12.97,88,0,110.3,13.33,12.46,15.2
"2009-05-24 01:11:30",913416,7.504,46.76,6.49,1.177,17.75,104.8454,11.68,12.81,87.8,0,110.2,13.33,12.47,8.8
"2009-05-24 01:12:00",913417,5.87,44.81,4.221,0.516,14.58,104.8474,11.68,12.64,87.6,0,110.2,13.36,12.47,6.8
"2009-05-24 01:12:30",913418,7.225,53.56,9.75,1.34,17.58,104.8485,11.68,12.72,87.5,0,110.2,13.33,12.48,15.6
"2009-05-24 01:13:00",913419,6.957,53.94,8.69,1.174,14.55,104.8511,11.69,12.77,87.4,0,110.2,13.33,12.48,15.9
"2009-05-24 01:13:30",913420,5.135,50.03,2.593,0.159,15.35,104.8547,11.7,12.63,87,0,110.2,13.37,12.49,12.0
"2009-05-24 01:14:00",913421,6.656,55.83,7.049,1.325,18.25,104.8612,11.72,12.85,86.9,0,110.2,13.34,12.51,17.8
"2009-05-24 01:14:30",913422,7.469,57.13,5.76,1.095,18.98,104.866,11.73,12.93,86.7,0,110.2,13.34,12.52,19.1
"2009-05-24 01:15:00",913423,7.656,62.18,6.087,1.09,18.53,104.8716,11.74,12.9,86.5,0,110.2,13.34,12.54,24.2
"2009-05-24 01:15:30",913424,5.557,54.15,1.252,0.084,13.68,104.8742,11.75,12.64,86.2,0,110.2,13.37,12.54,16.2
"2009-05-24 01:16:00",913425,5.278,55.43,2.822,0.127,2.145,104.8747,11.75,12.75,86.3,0,110.2,13.37,12.54,17.4
"2009-05-24 01:16:30",913426,6.409,63.56,6.381,1.348,11.34,104.8747,11.75,12.71,86,0,110.2,13.34,12.54,25.6
"2009-05-24 01:17:00",913427,6.424,65.81,6.258,1.313,16.34,104.8747,11.75,12.82,85.9,0,110.2,13.34,12.54,27.8
"2009-05-24 01:17:30",913428,4.365,71.56,5.335,0.258,14.42,104.875,11.75,12.69,85.5,0,110.2,13.38,12.55,33.6
"2009-05-24 01:18:00",913429,4.636,65.65,8.56,1.037,14.73,104.8756,11.75,12.68,84.8,0,110.2,13.34,12.55,27.7
"2009-05-24 01:18:30",913430,5.299,62.35,6.426,1.375,15.64,104.8776,11.76,12.86,84.6,0,110.2,13.34,12.55,24.3
"2009-05-24 01:19:00",913431,6.099,65.12,7.131,1.338,17.32,104.8942,11.8,12.98,84.5,0,110.1,13.34,12.59,27.1
"2009-05-24 01:19:30",913432,5.326,72.34,7.583,1.281,16.8,104.8931,11.8,12.82,83.7,0,110.2,13.34,12.59,34.3
"2009-05-24 01:20:00",913433,3.297,66.66,2.646,0.26,13,104.8982,11.81,12.68,82.8,0,110.2,13.37,12.61,28.7
"2009-05-24 01:20:30",913434,3.494,59.99,2.105,0.214,13.12,104.9013,11.82,12.7,82.4,0,110.2,13.36,12.61,22.0
"2009-05-24 01:21:00",913435,3.636,57.16,1.458,0.088,13.27,104.9052,11.83,12.71,82.4,0,110.2,13.37,12.62,19.2
"2009-05-24 01:21:30",913436,4.648,64.1,6.493,1.278,4.746,104.9086,11.84,12.86,82.6,0,110.2,13.34,12.63,26.1
"2009-05-24 01:22:00",913437,4.672,61.99,6.198,1.258,0.265,104.9083,11.84,12.91,82.8,0,110.2,13.34,12.63,24.0
"2009-05-24 01:22:30",913438,4.425,62.43,6.987,1.37,-1.366,104.9086,11.84,12.93,82.7,0,110.2,13.34,12.63,24.4
"2009-05-24 01:23:00",913439,5.558,69.77,6.373,1.001,7.723,104.9086,11.84,13.05,82.7,0,110.2,13.33,12.63,31.8
"2009-05-24 01:23:30",913440,5.104,71.18,6.333,1.139,-9.98,104.9086,11.84,12.97,82.4,0,110.2,13.34,12.63,33.2
"2009-05-24 01:24:00",913441,3.201,59.12,2.631,0.532,3.105,104.9086,11.84,12.81,81.8,0,110.2,13.34,12.63,21.1
"2009-05-24 01:24:30",913442,3.03,57.22,4.43,0.205,-1.821,104.9086,11.84,12.79,81.4,0,110.2,13.36,12.63,19.2
"2009-05-24 01:25:00",913443,4.162,64.25,4.288,1.29,6.727,104.9086,11.84,12.93,81.2,0,110.2,13.34,12.63,26.2
"2009-05-24 01:25:30",913444,4.029,57.62,6.05,0.922,-11.12,104.9086,11.84,12.94,80.9,0,110.1,13.34,12.63,19.6
"2009-05-24 01:26:00",913445,4.638,51.3,8.04,1.349,10.47,104.9086,11.84,13,81.2,0,110.2,13.34,12.63,13.3
"2009-05-24 01:26:30",913446,4.022,51.23,5.518,1.105,15.2,104.9089,11.84,12.95,81.6,0,110.2,13.34,12.63,13.2
"2009-05-24 01:27:00",913447,5.087,58.11,5.303,1.341,17.35,104.9086,11.84,13.06,81.7,0,110.2,13.34,12.63,20.1
"2009-05-24 01:27:30",913448,4.856,46.95,12.25,1.127,15.73,104.9086,11.84,12.99,81.7,0,110.2,13.34,12.63,9.0
"2009-05-24 01:28:00",913449,2.588,39.17,10.04,0.518,12.7,104.9086,11.84,12.82,81.8,0,110.2,13.38,12.63,1.2
"2009-05-24 01:28:30",913450,2.805,40.12,10.61,0.905,13.42,104.9086,11.84,12.89,82,0,110.2,13.34,12.63,2.1
"2009-05-24 01:29:00",913451,3.56,37.49,15.79,1.551,14.07,104.9083,11.84,12.88,82,0,110.2,13.34,12.63,359.5
"2009-05-24 01:29:30",913452,4.215,32.35,10.63,1.522,15.3,104.9052,11.83,12.97,82.1,0,110.2,13.35,12.62,354.4
"2009-05-24 01:30:00",913453,4.318,26.88,10.6,1.448,-3.275,104.8996,11.82,12.93,82.2,0,110.2,13.35,12.61,348.9
"2009-05-24 01:30:30",913454,4.197,25.78,12.03,1.775,-33.68,104.8934,11.8,13,82.7,0,110.2,13.35,12.59,347.8
"2009-05-24 01:31:00",913455,3.204,18.12,6.804,1.094,4.597,104.8821,11.77,12.97,83,0,110.2,13.35,12.56,340.1
"2009-05-24 01:31:30",913456,4.312,21.5,11.59,1.456,16.64,104.8773,11.76,12.92,83.3,0,110.2,13.35,12.55,343.5
"2009-05-24 01:32:00",913457,2.599,14.46,6.514,0.586,10.87,104.8756,11.75,12.96,83.7,0,110.2,13.35,12.55,336.5
"2009-05-24 01:32:30",913458,4.083,20.03,9.09,1.452,15.7,104.875,11.75,13.03,84.1,0,110.2,13.35,12.55,342.0
"2009-05-24 01:33:00",913459,4.071,11.99,9.75,1.276,14.44,104.8759,11.75,12.95,84.6,0,110.2,13.35,12.55,334.0
"2009-05-24 01:33:30",913460,5.32,21.92,5.713,1.119,14.7,104.8745,11.75,12.97,85.1,0,110.2,13.35,12.54,343.9
"2009-05-24 01:34:00",913461,5.688,26.52,8.48,1.525,17.37,104.8747,11.75,13.09,85.6,0,110.2,13.35,12.54,348.5
"2009-05-24 01:34:30",913462,6.154,26.66,5.884,1.342,7.427,104.8747,11.75,13.07,85.9,0,110.2,13.35,12.54,348.7
"2009-05-24 01:35:00",913463,6.788,30.38,6.197,1.208,12.52,104.8747,11.75,13.07,86.2,0,110.2,13.35,12.54,352.4
"2009-05-24 01:35:30",913464,6.367,30.77,6.833,1.512,11.51,104.8747,11.75,13.05,86.5,0,110.3,13.34,12.54,352.8
"2009-05-24 01:36:00",913465,5.619,30.58,8.02,1.177,4.248,104.8747,11.75,13.11,86.9,0,110.2,13.34,12.54,352.6
"2009-05-24 01:36:30",913466,5.549,25.31,5.497,1.211,5.352,104.8747,11.75,12.89,86.9,0,110.2,13.34,12.54,347.3
"2009-05-24 01:37:00",913467,6.574,31.22,5.893,1.247,-4.153,104.875,11.75,13.12,87.3,0,110.2,13.34,12.55,353.2
"2009-05-24 01:37:30",913468,5.658,21.21,10.17,1.557,4.996,104.8745,11.75,13.06,87.5,0,110.2,13.34,12.54,343.2
"2009-05-24 01:38:00",913469,5.612,18.81,5.317,0.975,10.47,104.8756,11.75,13.07,87.7,0,110.2,13.34,12.55,340.8
"2009-05-24 01:38:30",913470,5.152,19,9.56,1.371,4.262,104.8719,11.74,13.02,87.9,0,110.2,13.34,12.54,341.0
"2009-05-24 01:39:00",913471,7.68,20.94,6.186,1.064,-6.569,104.8658,11.73,13.1,88.1,0,110.2,13.33,12.52,342.9
"2009-05-24 01:39:30",913472,7.485,23.94,4.984,1.119,-6.444,104.8508,11.69,12.95,88,0,110.2,13.33,12.48,345.9
"2009-05-24 01:40:00",913473,6.437,24.6,7.938,1.509,3.836,104.8449,11.68,12.97,88.2,0,110.2,13.34,12.47,346.6
"2009-05-24 01:40:30",913474,7.323,29.83,6.342,1.199,12.78,104.8421,11.67,13.02,88.4,0,110.2,13.34,12.46,351.8
"2009-05-24 01:41:00",913475,7.104,26.88,7.615,1.222,3.193,104.8424,11.67,12.99,88.5,0,110.2,13.34,12.46,348.9
"2009-05-24 01:41:30",913476,6.762,29.74,6.567,1.391,-38.2,104.8418,11.67,13.01,88.7,0,110.2,13.34,12.46,351.7
"2009-05-24 01:42:00",913477,6.624,26.77,7.338,1.219,-23.92,104.8427,11.67,12.9,88.7,0,110.2,13.34,12.46,348.8
"2009-05-24 01:42:30",913478,6.819,29.37,6.67,1.233,-25.27,104.8436,11.67,13,88.9,0,110.2,13.34,12.46,351.4
"2009-05-24 01:43:00",913479,5.729,25.53,6.662,1.284,-10.01,104.845,11.68,12.91,88.9,0,110.2,13.34,12.47,347.5
"2009-05-24 01:43:30",913480,5.43,32.21,6.344,1.227,-17.51,104.8448,11.68,12.84,89,0,110.2,13.34,12.47,354.2
"2009-05-24 01:44:00",913481,4.816,33.67,6.877,1.228,9.09,104.8413,11.67,12.97,89.2,0,110.2,13.34,12.46,355.7
"2009-05-24 01:44:30",913482,5.485,36.02,9.37,1.489,-25.93,104.8309,11.64,12.98,89.2,0,110.2,13.34,12.43,358.0
"2009-05-24 01:45:00",913483,5.613,38.48,5.251,0.998,-39.9,104.8149,11.6,12.73,89,0,110.2,13.34,12.39,0.5
"2009-05-24 01:45:30",913484,6.67,41.97,6.522,1.319,-19.58,104.8118,11.59,12.84,89.2,0,110.2,13.35,12.38,4.0
"2009-05-24 01:46:00",913485,7.405,49.37,6.668,1.081,6.136,104.8112,11.59,12.92,89.3,0,110.2,13.35,12.38,11.4
"2009-05-24 01:46:30",913486,6.564,48.04,7.012,1.253,11.75,104.8106,11.59,12.95,89.4,0,110.2,13.35,12.38,10.0
"2009-05-24 01:47:00",913487,5.79,43.94,5.685,1.108,14.51,104.8132,11.59,12.75,89.3,0,110.2,13.35,12.39,5.9
"2009-05-24 01:47:30",913488,6.789,46.93,7.474,1.358,14.87,104.8098,11.59,12.87,89.5,0,110.2,13.35,12.38,8.9
"2009-05-24 01:48:00",913489,6.135,43.61,4.792,1.2,9.64,104.805,11.57,12.69,89.4,0,110.2,13.35,12.37,5.6
"2009-05-24 01:48:30",913490,6.656,50.94,6.638,1.333,11.59,104.8026,11.57,12.86,89.7,0,110.2,13.35,12.36,12.9
"2009-05-24 01:49:00",913491,7.005,54.02,5.798,1.225,17.49,104.7887,11.53,12.82,89.7,0,110.2,13.35,12.32,16.0
"2009-05-24 01:49:30",913492,7.243,50.14,7.246,1.327,11.88,104.78,11.51,12.89,89.8,0,110.2,13.35,12.30,12.1